• In Czech Republic
  • List of Countries
  • For 7 days
  • Water Temperature
  • Satellite Maps
  • Weather Map
  • Weather Widgets
  • user-avatar
    Login

    Hourly Weather Red Deer

    Today, 24 October, Tuesday

    Time Temperature Precipitation Wind Pressure Humidity
    00:00 +5°C° 0 mm 3 mps 690 mmHg 54%
    01:00 +5°C° 0 mm 4 mps 689 mmHg 53%
    02:00 +6°C° 0 mm 4 mps 689 mmHg 51%
    03:00 +6°C° 0 mm 4 mps 689 mmHg 50%
    04:00 +7°C° 0 mm 5 mps 689 mmHg 48%
    05:00 +7°C° 0 mm 5 mps 689 mmHg 48%
    06:00 +8°C° 0 mm 5 mps 689 mmHg 48%
    07:00 +8°C° 0 mm 5 mps 689 mmHg 48%
    08:00 +10°C° 0 mm 5 mps 689 mmHg 45%
    09:00 +13°C° 0 mm 5 mps 689 mmHg 42%
    10:00 +15°C° 0 mm 6 mps 689 mmHg 39%
    11:00 +15°C° 0 mm 5 mps 688 mmHg 40%
    12:00 +15°C° 0 mm 4 mps 688 mmHg 41%
    13:00 +17°C° 0 mm 4 mps 687 mmHg 42%
    14:00 +14°C° 0 mm 3 mps 686 mmHg 49%
    15:00 +12°C° 0 mm 3 mps 685 mmHg 56%
    16:00 +12°C° 0 mm 2 mps 685 mmHg 63%
    17:00 +10°C° 0 mm 2 mps 684 mmHg 68%
    18:00 +8°C° 0 mm 2 mps 684 mmHg 73%
    19:00 +7°C° 0 mm 2 mps 683 mmHg 79%
    20:00 +7°C° 0 mm 2 mps 683 mmHg 80%
    21:00 +6°C° 0 mm 2 mps 682 mmHg 81%
    22:00 +6°C° 0 mm 2 mps 681 mmHg 83%
    23:00 +5°C° 0 mm 3 mps 680 mmHg 80%

    Tomorrow, 25 October, Wednesday

    Time Temperature Precipitation Wind Pressure Humidity
    00:00 +5°C° 0 mm 4 mps 679 mmHg 77%
    01:00 +5°C° 0 mm 5 mps 678 mmHg 75%
    02:00 +5°C° 0 mm 5 mps 676 mmHg 67%
    03:00 +6°C° 0 mm 5 mps 675 mmHg 59%
    04:00 +7°C° 0 mm 5 mps 674 mmHg 51%
    05:00 +7°C° 0 mm 5 mps 673 mmHg 48%
    06:00 +8°C° 0 mm 4 mps 673 mmHg 44%
    07:00 +8°C° 0 mm 4 mps 672 mmHg 40%
    08:00 +9°C° 0.1 mm 6 mps 673 mmHg 44%
    09:00 +10°C° 0.1 mm 8 mps 674 mmHg 48%
    10:00 +11°C° 0.1 mm 10 mps 674 mmHg 52%
    11:00 +8°C° 0 mm 11 mps 676 mmHg 53%
    12:00 +5°C° 0 mm 13 mps 677 mmHg 55%
    13:00 +2°C° 0 mm 15 mps 679 mmHg 56%
    14:00 +1°C° 0 mm 14 mps 681 mmHg 59%
    15:00 0°C° 0 mm 12 mps 683 mmHg 61%
    16:00 -1°C° 0 mm 11 mps 685 mmHg 63%
    17:00 -2°C° 0 mm 10 mps 687 mmHg 64%
    18:00 -1°C° 0 mm 9 mps 688 mmHg 66%
    19:00 -2°C° 0 mm 8 mps 690 mmHg 67%
    20:00 -2°C° 0 mm 7 mps 690 mmHg 69%
    21:00 -3°C° 0 mm 6 mps 691 mmHg 71%
    22:00 -2°C° 0 mm 5 mps 692 mmHg 73%
    23:00 -3°C° 0 mm 4 mps 692 mmHg 78%

    Day after tomorrow, 26 October, Thursday

    Time Temperature Precipitation Wind Pressure Humidity
    00:00 -4°C° 0 mm 3 mps 692 mmHg 83%
    01:00 -2°C° 0 mm 1 mps 692 mmHg 88%
    02:00 -2°C° 0 mm 1 mps 692 mmHg 88%
    03:00 -2°C° 0 mm 1 mps 693 mmHg 88%
    04:00 -2°C° 0 mm 1 mps 693 mmHg 88%
    05:00 -4°C° 0 mm 2 mps 692 mmHg 86%
    06:00 -4°C° 0 mm 3 mps 692 mmHg 84%
    07:00 -4°C° 0 mm 4 mps 692 mmHg 82%
    08:00 -3°C° 0 mm 4 mps 692 mmHg 73%
    09:00 -1°C° 0 mm 5 mps 691 mmHg 64%
    10:00 -1°C° 0 mm 6 mps 691 mmHg 56%
    11:00 +1°C° 0 mm 5 mps 690 mmHg 53%
    12:00 +3°C° 0 mm 5 mps 690 mmHg 50%
    13:00 +5°C° 0 mm 5 mps 690 mmHg 47%
    14:00 +4°C° 0 mm 4 mps 690 mmHg 52%
    15:00 +3°C° 0 mm 3 mps 689 mmHg 56%
    16:00 +3°C° 0 mm 2 mps 689 mmHg 60%
    17:00 +3°C° 0 mm 2 mps 689 mmHg 62%
    18:00 +2°C° 0 mm 2 mps 690 mmHg 64%
    19:00 +1°C° 0 mm 2 mps 690 mmHg 66%
    20:00 +1°C° 0 mm 2 mps 690 mmHg 65%
    21:00 +1°C° 0 mm 2 mps 690 mmHg 64%
    22:00 +1°C° 0 mm 2 mps 690 mmHg 63%
    23:00 +1°C° 0 mm 2 mps 689 mmHg 62%

    27 October, Friday

    Time Temperature Precipitation Wind Pressure Humidity
    00:00 +1°C° 0 mm 2 mps 689 mmHg 61%
    01:00 +1°C° 0 mm 2 mps 689 mmHg 60%
    02:00 +1°C° 0 mm 2 mps 689 mmHg 60%
    03:00 +1°C° 0 mm 2 mps 689 mmHg 59%
    04:00 +1°C° 0 mm 2 mps 688 mmHg 59%
    05:00 +2°C° 0 mm 2 mps 688 mmHg 58%
    06:00 +2°C° 0 mm 2 mps 688 mmHg 58%
    07:00 +2°C° 0 mm 2 mps 688 mmHg 57%
    08:00 +5°C° 0 mm 2 mps 688 mmHg 52%
    09:00 +7°C° 0 mm 2 mps 688 mmHg 47%
    10:00 +10°C° 0 mm 2 mps 688 mmHg 42%
    11:00 +11°C° 0 mm 3 mps 688 mmHg 41%
    12:00 +12°C° 0 mm 3 mps 688 mmHg 41%
    13:00 +14°C° 0 mm 3 mps 688 mmHg 41%
    14:00 +12°C° 0 mm 3 mps 687 mmHg 46%
    15:00 +11°C° 0 mm 3 mps 687 mmHg 52%
    16:00 +10°C° 0 mm 2 mps 687 mmHg 58%
    17:00 +9°C° 0 mm 3 mps 687 mmHg 62%
    18:00 +8°C° 0 mm 3 mps 687 mmHg 66%
    19:00 +8°C° 0 mm 3 mps 687 mmHg 70%
    20:00 +7°C° 0 mm 3 mps 687 mmHg 72%
    21:00 +7°C° 0 mm 3 mps 687 mmHg 74%
    22:00 +7°C° 0 mm 2 mps 687 mmHg 75%
    23:00 +7°C° 0 mm 2 mps 687 mmHg 74%

    28 October, Saturday

    Time Temperature Precipitation Wind Pressure Humidity
    00:00 +7°C° 0 mm 2 mps 686 mmHg 73%
    01:00 +7°C° 0 mm 2 mps 686 mmHg 72%
    02:00 +7°C° 0 mm 2 mps 686 mmHg 70%
    03:00 +7°C° 0 mm 2 mps 685 mmHg 68%
    04:00 +7°C° 0 mm 2 mps 685 mmHg 66%
    05:00 +7°C° 0 mm 2 mps 685 mmHg 64%
    06:00 +7°C° 0 mm 3 mps 684 mmHg 63%
    07:00 +7°C° 0 mm 3 mps 684 mmHg 61%
    08:00 +9°C° 0 mm 3 mps 684 mmHg 55%
    09:00 +12°C° 0 mm 3 mps 683 mmHg 49%
    10:00 +14°C° 0 mm 4 mps 683 mmHg 44%
    11:00 +15°C° 0 mm 4 mps 683 mmHg 42%
    12:00 +17°C° 0 mm 3 mps 683 mmHg 41%
    13:00 +19°C° 0 mm 3 mps 682 mmHg 40%
    14:00 +17°C° 0 mm 3 mps 682 mmHg 46%
    15:00 +15°C° 0 mm 2 mps 681 mmHg 52%
    16:00 +14°C° 0 mm 2 mps 681 mmHg 57%
    17:00 +13°C° 0 mm 2 mps 681 mmHg 61%
    18:00 +12°C° 0 mm 2 mps 681 mmHg 65%
    19:00 +9°C° 0 mm 3 mps 681 mmHg 68%
    20:00 +9°C° 0 mm 3 mps 682 mmHg 69%
    21:00 +9°C° 0 mm 3 mps 682 mmHg 70%
    22:00 +7°C° 0 mm 4 mps 682 mmHg 71%
    23:00 +7°C° 0 mm 4 mps 683 mmHg 73%

    29 October, Sunday

    Time Temperature Precipitation Wind Pressure Humidity
    00:00 +6°C° 0 mm 5 mps 683 mmHg 75%
    01:00 +6°C° 0 mm 5 mps 684 mmHg 78%
    02:00 +5°C° 0 mm 5 mps 684 mmHg 81%
    03:00 +4°C° 0 mm 6 mps 685 mmHg 84%
    04:00 +3°C° 0 mm 6 mps 686 mmHg 87%
    05:00 +3°C° 0.1 mm 6 mps 686 mmHg 86%
    06:00 +3°C° 0.1 mm 6 mps 687 mmHg 85%
    07:00 +3°C° 0.1 mm 6 mps 688 mmHg 83%
    08:00 +3°C° 0.5 mm 6 mps 688 mmHg 80%
    09:00 +2°C° 0.5 mm 7 mps 689 mmHg 77%
    10:00 +2°C° 0.5 mm 7 mps 689 mmHg 74%
    11:00 +2°C° 0.1 mm 7 mps 690 mmHg 71%
    12:00 0°C° 0.1 mm 8 mps 690 mmHg 68%
    13:00 0°C° 0.1 mm 8 mps 691 mmHg 64%
    14:00 0°C° 0 mm 8 mps 692 mmHg 66%
    15:00 -1°C° 0 mm 8 mps 692 mmHg 67%
    16:00 -2°C° 0 mm 8 mps 693 mmHg 68%
    17:00 -2°C° 0.1 mm 8 mps 694 mmHg 68%
    18:00 -4°C° 0.1 mm 8 mps 694 mmHg 68%
    19:00 -4°C° 0.1 mm 8 mps 695 mmHg 68%
    20:00 -3°C° 0 mm 7 mps 695 mmHg 70%
    21:00 -4°C° 0 mm 6 mps 695 mmHg 72%
    22:00 -4°C° 0 mm 5 mps 695 mmHg 74%
    23:00 -5°C° 0 mm 5 mps 695 mmHg 77%

    30 October, Monday

    Time Temperature Precipitation Wind Pressure Humidity
    00:00 -5°C° 0 mm 5 mps 695 mmHg 80%
    01:00 -4°C° 0 mm 4 mps 695 mmHg 82%
    02:00 -4°C° 0 mm 4 mps 694 mmHg 84%
    03:00 -5°C° 0 mm 3 mps 694 mmHg 85%
    04:00 -5°C° 0 mm 3 mps 693 mmHg 86%
    05:00 -5°C° 0 mm 3 mps 693 mmHg 84%
    06:00 -4°C° 0 mm 2 mps 692 mmHg 82%
    07:00 -4°C° 0 mm 2 mps 691 mmHg 80%
    08:00 -2°C° 0 mm 3 mps 690 mmHg 71%
    09:00 -1°C° 0 mm 3 mps 689 mmHg 62%
    10:00 -1°C° 0 mm 4 mps 688 mmHg 53%
    11:00 +1°C° 0 mm 4 mps 687 mmHg 49%
    12:00 +3°C° 0 mm 4 mps 685 mmHg 45%
    13:00 +3°C° 0 mm 5 mps 684 mmHg 40%
    14:00 +3°C° 0 mm 4 mps 683 mmHg 46%
    15:00 +3°C° 0 mm 4 mps 681 mmHg 51%
    16:00 +2°C° 0 mm 3 mps 680 mmHg 57%
    17:00 +1°C° 0 mm 4 mps 679 mmHg 56%
    18:00 +3°C° 0 mm 4 mps 679 mmHg 56%
    19:00 +3°C° 0 mm 4 mps 678 mmHg 56%
    20:00 +3°C° 0.1 mm 4 mps 677 mmHg 56%
    21:00 +3°C° 0.1 mm 4 mps 676 mmHg 57%
    22:00 +2°C° 0.1 mm 5 mps 675 mmHg 58%
    23:00 +2°C° 0.1 mm 6 mps 675 mmHg 58%
    Show more